Flag for Seychelles Weather past 2 weeks in Victoria, Seychelles

Now
82 °F

Passing clouds.


Feels Like: 91 °F
Forecast: 77 / 82 °F
Wind: 7 mph from Southeast

Location: National Airport

Current Time: May 30, 2015 at 2:53:32 AM

Latest Report: May 30, 2015 at 2:00 AM


Visibility: N/A

Pressure: 29.80 "Hg

Humidity: 84%

Dew point: 77 °F

Location of VictoriaLocation

Historic Weather in Victoria — Graph

°F

Victoria temperature yesterday

Maximum temperature yesterday: 86 °F (at 10:00 AM)
Minimum temperature yesterday: 81 °F (at 3:00 AM)
Average temperature yesterday: 83 °F

Past Weeks' High & Low Weather Summary

 TemperatureHumidityPressure
High90 °F (May 17, 1:00 PM)100% (May 16, 1:00 AM)29.92 "Hg (May 16, 1:00 AM)
Low75 °F (May 22, 12:00 PM)66% (May 18, 2:00 PM)29.74 "Hg (May 17, 2:00 PM)
Average84 °F83%29.84 "Hg
* Reported May 15 1:00 AM — May 30 1:00 AM, Victoria, Weather by CustomWeather, © 2015

Note: Actual official high and low records may vary slightly from our data, if they occured in-between our weather recording intervals... More about our weather records

Advertising

Victoria weather history for previous 24 hours

 ConditionsComfort  
Time TempWeatherWind HumidityBarometerVisibility
1:00 AM
Sat, May 30
82 °FPassing clouds.5 mph79%29.86 "HgN/A
12:00 AM82 °FPassing clouds.10 mph84%29.86 "HgN/A
11:00 PM
Fri, May 29
82 °FPassing clouds.10 mph84%29.86 "HgN/A
10:00 PM82 °FPassing clouds.8 mph79%29.86 "HgN/A
9:00 PM82 °FPassing clouds.10 mph79%29.86 "HgN/A
8:00 PM82 °FPassing clouds.13 mph79%29.86 "HgN/A
7:00 PM82 °FSprinkles. Passing clouds.7 mph84%29.83 "HgN/A
6:00 PM82 °FScattered clouds.10 mph79%29.80 "HgN/A
5:00 PM84 °FScattered clouds.13 mph79%29.80 "HgN/A
4:00 PM86 °FPartly sunny.9 mph75%29.77 "HgN/A
3:00 PM84 °FPartly sunny.7 mph74%29.77 "HgN/A
2:00 PM86 °FPartly sunny.12 mph75%29.80 "HgN/A
12:00 PM86 °FScattered clouds.7 mph75%29.83 "HgN/A
11:00 AM86 °FScattered clouds.12 mph70%29.86 "HgN/A
10:00 AM86 °FPartly sunny.6 mph75%29.89 "HgN/A
9:00 AM84 °FPartly sunny.22 mph79%29.86 "HgN/A
8:00 AM84 °FPartly sunny.28 mph79%29.86 "HgN/A
7:00 AM82 °FPartly sunny.14 mph79%29.83 "HgN/A
6:00 AM82 °FPassing clouds.17 mph84%29.83 "HgN/A
5:00 AM82 °FPassing clouds.12 mph79%29.80 "HgN/A
4:00 AM81 °FPassing clouds.9 mph89%29.80 "HgN/A
3:00 AM81 °FPassing clouds.5 mph94%29.80 "HgN/A
2:00 AM82 °FRain showers. Passing clouds.10 mph84%29.80 "HgN/A
Weather by CustomWeather, © 2015

See weather overviewHow to use our weather pages